| time (UTC) | temp F | wind direction | speed MPH | gust MPH | rain 1hr in | rain 24hr in | rain mn in | humidity % | barometer mb |
| 20260506090058 | 76 | 0 | 0.0 | 0.0 | 0.00 | 0.00 | 0.00 | 88 | 1009.6 |
| 20260506084554 | 76 | 0 | 0.0 | 1.0 | 0.00 | 0.00 | 0.00 | 88 | 1009.7 |
| 20260506083055 | 76 | 0 | 0.0 | 2.0 | 0.00 | 0.00 | 0.00 | 88 | 1009.8 |
| 20260506081553 | 76 | 0 | 0.0 | 0.0 | 0.00 | 0.00 | 0.00 | 88 | 1009.7 |
| 20260506080111 | 76 | 0 | 0.0 | 2.0 | 0.00 | 0.00 | 0.00 | 88 | 1009.8 |
| 20260506073105 | 76 | 0 | 0.0 | 4.0 | 0.00 | 0.00 | 0.00 | 88 | 1010.2 |
| 20260506071557 | 76 | 256 | 0.0 | 4.0 | 0.00 | 0.00 | 0.00 | 88 | 1010.2 |
| 20260506061601 | 76 | 0 | 0.0 | 6.0 | 0.00 | 0.00 | 0.00 | 88 | 1010.4 |
| 20260506044605 | 77 | 0 | 0.0 | 2.0 | 0.00 | 0.00 | 0.00 | 87 | 1010.7 |
| 20260506043053 | 77 | 105 | 0.0 | 4.0 | 0.00 | 0.00 | 0.00 | 87 | 1010.6 |
| 20260506041605 | 77 | 0 | 0.0 | 6.0 | 0.00 | 0.00 | 0.00 | 87 | 1010.4 |
| 20260506040100 | 77 | 0 | 0.0 | 5.0 | 0.00 | 0.00 | 0.00 | 87 | 1010.3 |
| 20260506034558 | 77 | 0 | 0.0 | 4.0 | 0.00 | 0.00 | 0.00 | 87 | 1010.3 |
| 20260506033056 | 77 | 0 | 0.0 | 2.0 | 0.00 | 0.00 | 0.00 | 88 | 1010.2 |
| 20260506031556 | 77 | 0 | 0.0 | 2.0 | 0.00 | 0.00 | 0.00 | 87 | 1010.0 |
| 20260506030054 | 77 | 0 | 0.0 | 4.0 | 0.00 | 0.00 | 0.00 | 88 | 1009.9 |
| 20260506024608 | 77 | 238 | 0.0 | 4.0 | 0.00 | 0.00 | 0.00 | 88 | 1009.5 |
| 20260506023057 | 77 | 0 | 0.0 | 3.0 | 0.00 | 0.00 | 0.00 | 87 | 1009.3 |
| 20260506021553 | 77 | 0 | 0.0 | 2.0 | 0.00 | 0.00 | 0.00 | 87 | 1009.1 |
| 20260506020117 | 77 | 0 | 0.0 | 4.0 | 0.00 | 0.00 | 0.00 | 87 | 1009.0 |
| 20260506014554 | 77 | 0 | 1.0 | 7.0 | 0.00 | 0.00 | 0.00 | 87 | 1008.8 |
| 20260506013051 | 77 | 234 | 0.0 | 2.0 | 0.00 | 0.00 | 0.00 | 87 | 1008.6 |
| 20260506011552 | 77 | 244 | 0.0 | 3.0 | 0.00 | 0.00 | 0.00 | 86 | 1008.6 |
| 20260506010053 | 77 | 186 | 0.0 | 5.0 | 0.00 | 0.00 | 0.00 | 86 | 1008.6 |
| 20260506004550 | 78 | 0 | 0.0 | 4.0 | 0.00 | 0.00 | 0.00 | 86 | 1008.3 |
| 20260506003053 | 78 | 213 | 0.0 | 8.0 | 0.00 | 0.00 | 0.00 | 86 | 1008.2 |
| 20260506001602 | 78 | 188 | 0.0 | 4.0 | 0.00 | 0.00 | 0.00 | 85 | 1008.2 |
| 20260506000113 | 79 | 282 | 0.0 | 3.0 | 0.00 | 0.00 | 0.00 | 85 | 1008.0 |
| 20260505234552 | 79 | 0 | 1.0 | 7.0 | 0.00 | 0.00 | 0.00 | 85 | 1008.2 |
| 20260505233053 | 79 | 226 | 0.0 | 5.0 | 0.00 | 0.00 | 0.00 | 84 | 1008.3 |
| 20260505231556 | 79 | 290 | 1.0 | 6.0 | 0.00 | 0.00 | 0.00 | 84 | 1008.3 |
| 20260505230052 | 80 | 0 | 0.0 | 7.0 | 0.00 | 0.00 | 0.00 | 84 | 1008.3 |
| 20260505224552 | 80 | 0 | 2.0 | 11.0 | 0.00 | 0.00 | 0.00 | 84 | 1008.2 |
| 20260505223053 | 80 | 0 | 0.0 | 8.0 | 0.00 | 0.00 | 0.00 | 83 | 1008.3 |
| 20260505221557 | 80 | 184 | 1.0 | 5.0 | 0.00 | 0.00 | 0.00 | 83 | 1008.3 |
| 20260505220106 | 80 | 252 | 2.0 | 8.0 | 0.00 | 0.00 | 0.00 | 83 | 1008.4 |
| 20260505214601 | 80 | 184 | 1.0 | 14.0 | 0.00 | 0.00 | 0.00 | 83 | 1008.5 |
| 20260505213050 | 81 | 231 | 1.0 | 9.0 | 0.00 | 0.00 | 0.00 | 82 | 1008.6 |
| 20260505211626 | 81 | 0 | 1.0 | 10.0 | 0.00 | 0.00 | 0.00 | 82 | 1008.8 |
| 20260505210050 | 81 | 237 | 1.0 | 7.0 | 0.00 | 0.00 | 0.00 | 82 | 1009.0 |
| 20260505204602 | 81 | 250 | 1.0 | 6.0 | 0.00 | 0.00 | 0.00 | 82 | 1009.1 |
| 20260505203056 | 82 | 248 | 2.0 | 8.0 | 0.00 | 0.00 | 0.00 | 81 | 1009.2 |
| 20260505201552 | 82 | 209 | 2.0 | 7.0 | 0.00 | 0.00 | 0.00 | 81 | 1009.5 |
| 20260505200054 | 82 | 244 | 1.0 | 5.0 | 0.00 | 0.00 | 0.00 | 81 | 1009.6 |
| 20260505194549 | 82 | 0 | 0.0 | 5.0 | 0.00 | 0.00 | 0.00 | 82 | 1009.8 |
| 20260505193055 | 81 | 275 | 0.0 | 6.0 | 0.00 | 0.00 | 0.00 | 83 | 1010.0 |
| 20260505191604 | 80 | 0 | 0.0 | 9.0 | 0.00 | 0.00 | 0.00 | 84 | 1010.1 |
| 20260505190049 | 79 | 239 | 2.0 | 9.0 | 0.00 | 0.00 | 0.00 | 84 | 1010.1 |
| 20260505184554 | 79 | 146 | 1.0 | 11.0 | 0.00 | 0.00 | 0.00 | 84 | 1010.1 |
| 20260505183054 | 79 | 215 | 2.0 | 9.0 | 0.00 | 0.00 | 0.00 | 84 | 1010.3 |
| 20260505181639 | 78 | 191 | 1.0 | 6.0 | 0.00 | 0.00 | 0.00 | 85 | 1010.3 |
| 20260505180104 | 78 | 0 | 0.0 | 8.0 | 0.00 | 0.00 | 0.00 | 86 | 1010.5 |
| 20260505174553 | 78 | 238 | 3.0 | 12.0 | 0.00 | 0.00 | 0.00 | 84 | 1010.7 |
| 20260505173051 | 78 | 0 | 0.0 | 10.0 | 0.00 | 0.00 | 0.00 | 84 | 1010.7 |
| 20260505171600 | 78 | 222 | 1.0 | 7.0 | 0.00 | 0.00 | 0.00 | 84 | 1010.7 |
| 20260505170054 | 78 | 0 | 1.0 | 8.0 | 0.00 | 0.00 | 0.00 | 84 | 1010.7 |
| 20260505164551 | 78 | 209 | 0.0 | 5.0 | 0.00 | 0.00 | 0.00 | 85 | 1010.7 |
| 20260505163052 | 78 | 0 | 0.0 | 9.0 | 0.00 | 0.00 | 0.00 | 84 | 1010.7 |
| 20260505161551 | 77 | 257 | 2.0 | 8.0 | 0.00 | 0.00 | 0.00 | 84 | 1010.7 |
| 20260505160105 | 77 | 207 | 1.0 | 5.0 | 0.00 | 0.00 | 0.00 | 85 | 1010.6 |
| 20260505153059 | 75 | 0 | 0.0 | 7.0 | 0.00 | 0.00 | 0.00 | 88 | 1010.7 |
| 20260505151603 | 75 | 0 | 1.0 | 9.0 | 0.00 | 0.00 | 0.00 | 87 | 1010.5 |
| 20260505124554 | 74 | 215 | 0.0 | 5.0 | 0.00 | 0.00 | 0.00 | 86 | 1010.1 |
| 20260505123059 | 74 | 232 | 1.0 | 7.0 | 0.00 | 0.00 | 0.00 | 86 | 1009.9 |
| 20260505121557 | 74 | 0 | 0.0 | 7.0 | 0.00 | 0.00 | 0.00 | 86 | 1009.7 |
| 20260505120111 | 74 | 199 | 0.0 | 3.0 | 0.00 | 0.00 | 0.00 | 86 | 1010.1 |
| 20260505114554 | 74 | 0 | 0.0 | 6.0 | 0.00 | 0.00 | 0.00 | 86 | 1009.6 |
| 20260505113053 | 73 | 232 | 1.0 | 5.0 | 0.00 | 0.00 | 0.00 | 86 | 1009.7 |
| 20260505111556 | 73 | 202 | 0.0 | 5.0 | 0.00 | 0.00 | 0.00 | 86 | 1009.7 |
| 20260505110110 | 73 | 0 | 1.0 | 7.0 | 0.00 | 0.00 | 0.00 | 86 | 1009.8 |
| 20260505101551 | 73 | 0 | 0.0 | 3.0 | 0.00 | 0.00 | 0.00 | 86 | 1009.8 |
| 20260505100053 | 73 | 0 | 0.0 | 4.0 | 0.00 | 0.00 | 0.00 | 86 | 1009.7 |
| 20260505094550 | 73 | 0 | 0.0 | 4.0 | 0.00 | 0.00 | 0.00 | 86 | 1009.8 |
| 20260505093051 | 73 | 0 | 0.0 | 4.0 | 0.00 | 0.00 | 0.00 | 85 | 1009.9 |
| 20260505091555 | 73 | 0 | 1.0 | 5.0 | 0.00 | 0.00 | 0.00 | 85 | 1009.9 |